STARLINK-33795 (63457 NORAD) Tracking and Keplerian Element Data

This shows tracking and keplerian element data for the satellite.

Feedback or suggestion? Click here.




ElementValue
Catalog63457
NameSTARLINK-33795
Epoch Orbit4108
Epoch Day353.95220338
Epoch Year2025
RAAN153.0465
Inclination53.1571
Eccentricity0.0001281
Argument of Perigee92.2545
Mean Anonmoly267.8602
Mean Motion15.3019174
Decay Rate5.041E-05
L11 63457U 25069AA 25353.95220338 .00005041 00000+0 18227-3 0 9999
L22 63457 53.1571 153.0465 0001281 92.2545 267.8602 15.30191740 41087



Live tracking and technical data element details for STARLINK-33795 (NORAD 63457). STARLINK-33795 can be tracked NOW for your location showing map with azimuth and elevation plus other details from your city location.







IsCatalogInMostPopularTable: catalog: 63457, numindb: 4
Update: records affected: 1



GetName: 63457 STARLINK-33795

Hit Count: updated at: Sat, 07 Feb 2026 07:03:35 GMT